Starlink 11325

operational
NORAD ID: 61538 Int'l Des: 2024-184 Owner: SPXS Country: US Constellation: starlink
LEOCIRCULAR

About Starlink 11325

Description loading...

Live Position

Loading 3D Globe...

Upcoming Passes

Altitude History

Altitude vs Time

uPlot chart will show altitude changes over time

Two-Line Element Set

1 61538U 24184G 25352.21121385 -.00000554 00000-0 29137-6 0 9995
2 61538 53.1605 277.6692 0001409 83.5763 276.5415 15.69715176 67629
Epoch: Dec 18, 2025 • Age: 25 hours

Current Status

Altitude 364.9 km
Velocity 7.70 km/s
Sub-Earth Point 51.60°N, 166.82°E
Launch Date Oct 15, 2024
Age 1.1 years
Type internet

Technical Details

Classification Payload
Mass 960.00 kg
Dry Mass 910.00 kg
Total Mass 960.00 kg
Length 0.30 m
Diameter 4.10 m
Span 29.00 m
Shape Box + pan
Manufacturer SPXS
Bus Type Starlink V2MD
Phase Status In Orbit
Owner/State SPXS/US

Large Constellations

Loading constellations...